| time (UTC) | temp C | wind direction | speed KPH | gust KPH | rain 1hr cm | rain 24hr cm | rain mn cm | humidity % | barometer mb |
| 20260506024528 | 8 | 330 | 14.5 | 24.1 | 0.00 | 0.00 | 0.00 | 74 | 1001.4 |
| 20260506023018 | 8 | 35 | 6.4 | 17.7 | 0.00 | 0.00 | 0.00 | 70 | 1000.4 |
| 20260506021516 | 8 | 1 | 11.3 | 25.7 | 0.00 | 0.00 | 0.00 | 67 | 1000.2 |
| 20260506020013 | 9 | 347 | 11.3 | 20.9 | 0.00 | 0.00 | 0.00 | 60 | 1000.0 |
| 20260506014512 | 10 | 313 | 9.7 | 29.0 | 0.00 | 0.00 | 0.00 | 53 | 1000.1 |
| 20260506013007 | 12 | 279 | 11.3 | 25.7 | 0.00 | 0.00 | 0.00 | 45 | 999.7 |
| 20260506011508 | 12 | 281 | 9.7 | 22.5 | 0.00 | 0.00 | 0.00 | 44 | 999.2 |
| 20260506010006 | 13 | 250 | 8.0 | 19.3 | 0.00 | 0.00 | 0.00 | 40 | 999.0 |
| 20260506004506 | 14 | 284 | 11.3 | 25.7 | 0.00 | 0.00 | 0.00 | 38 | 998.8 |
| 20260506003007 | 15 | 232 | 9.7 | 22.5 | 0.00 | 0.00 | 0.00 | 37 | 998.7 |
| 20260506001505 | 15 | 245 | 11.3 | 25.7 | 0.00 | 0.00 | 0.00 | 40 | 998.6 |
| 20260506000004 | 15 | 266 | 11.3 | 27.4 | 0.00 | 0.00 | 0.00 | 37 | 998.5 |
| 20260505234504 | 16 | 278 | 12.9 | 25.7 | 0.00 | 0.00 | 0.00 | 38 | 998.5 |
| 20260505233004 | 15 | 262 | 17.7 | 29.0 | 0.00 | 0.00 | 0.00 | 42 | 998.5 |
| 20260505231508 | 15 | 278 | 16.1 | 38.6 | 0.00 | 0.00 | 0.00 | 41 | 998.6 |
| 20260505230002 | 16 | 277 | 14.5 | 30.6 | 0.00 | 0.00 | 0.00 | 40 | 998.5 |
| 20260505224501 | 15 | 271 | 11.3 | 29.0 | 0.00 | 0.00 | 0.00 | 43 | 998.4 |
| 20260505223001 | 15 | 258 | 11.3 | 33.8 | 0.00 | 0.00 | 0.00 | 44 | 998.6 |
| 20260505221616 | 15 | 241 | 19.3 | 37.0 | 0.00 | 0.00 | 0.00 | 42 | 998.8 |
| 20260505220143 | 16 | 241 | 19.3 | 33.8 | 0.00 | 0.00 | 0.00 | 38 | 998.8 |
| 20260505214618 | 16 | 285 | 12.9 | 35.4 | 0.00 | 0.00 | 0.00 | 40 | 998.6 |
| 20260505213059 | 17 | 269 | 12.9 | 37.0 | 0.00 | 0.00 | 0.00 | 38 | 998.5 |
| 20260505211613 | 16 | 312 | 16.1 | 33.8 | 0.00 | 0.00 | 0.00 | 39 | 998.9 |
| 20260505210055 | 17 | 240 | 14.5 | 32.2 | 0.00 | 0.00 | 0.00 | 38 | 999.0 |
| 20260505204555 | 17 | 264 | 12.9 | 29.0 | 0.00 | 0.00 | 0.00 | 38 | 999.1 |
| 20260505203055 | 17 | 272 | 11.3 | 38.6 | 0.00 | 0.00 | 0.00 | 38 | 999.3 |
| 20260505201606 | 17 | 283 | 17.7 | 40.2 | 0.00 | 0.00 | 0.00 | 37 | 999.3 |
| 20260505194601 | 15 | 274 | 11.3 | 37.0 | 0.00 | 0.00 | 0.00 | 42 | 999.4 |
| 20260505193050 | 15 | 260 | 11.3 | 27.4 | 0.00 | 0.00 | 0.00 | 40 | 999.4 |
| 20260505191553 | 15 | 202 | 12.9 | 27.4 | 0.00 | 0.00 | 0.00 | 39 | 999.4 |
| 20260505190054 | 16 | 269 | 12.9 | 30.6 | 0.00 | 0.00 | 0.00 | 36 | 999.6 |
| 20260505184545 | 15 | 219 | 6.4 | 14.5 | 0.00 | 0.00 | 0.00 | 39 | 999.5 |
| 20260505183049 | 15 | 274 | 8.0 | 20.9 | 0.00 | 0.00 | 0.00 | 39 | 999.8 |
| 20260505181545 | 13 | 304 | 3.2 | 14.5 | 0.00 | 0.00 | 0.00 | 41 | 999.6 |
| 20260505180043 | 15 | 225 | 8.0 | 16.1 | 0.00 | 0.00 | 0.00 | 38 | 999.8 |
| 20260505174546 | 13 | 283 | 6.4 | 20.9 | 0.00 | 0.00 | 0.00 | 40 | 1000.1 |
| 20260505173047 | 15 | 290 | 9.7 | 19.3 | 0.00 | 0.00 | 0.00 | 37 | 1000.1 |
| 20260505171541 | 15 | 236 | 6.4 | 16.1 | 0.00 | 0.00 | 0.00 | 37 | 1000.0 |
| 20260505170040 | 13 | 216 | 1.6 | 17.7 | 0.00 | 0.00 | 0.00 | 37 | 1000.2 |
| 20260505164538 | 13 | 28 | 4.8 | 20.9 | 0.00 | 0.00 | 0.00 | 37 | 1000.3 |
| 20260505163035 | 13 | 257 | 8.0 | 17.7 | 0.00 | 0.00 | 0.00 | 39 | 1000.5 |
| 20260505161532 | 12 | 301 | 9.7 | 19.3 | 0.00 | 0.00 | 0.00 | 41 | 1000.7 |
| 20260505153030 | 12 | 279 | 14.5 | 29.0 | 0.00 | 0.00 | 0.00 | 43 | 1000.8 |
| 20260505151529 | 12 | 288 | 12.9 | 22.5 | 0.00 | 0.00 | 0.00 | 41 | 1000.7 |
| 20260505124515 | 8 | 328 | 6.4 | 11.3 | 0.00 | 0.00 | 0.00 | 44 | 1000.7 |
| 20260505123011 | 8 | 351 | 3.2 | 9.7 | 0.00 | 0.00 | 0.00 | 44 | 1000.8 |
| 20260505121610 | 8 | 44 | 4.8 | 9.7 | 0.00 | 0.00 | 0.00 | 44 | 1000.5 |
| 20260505120006 | 9 | 293 | 4.8 | 16.1 | 0.00 | 0.00 | 0.00 | 42 | 1000.2 |
| 20260505114502 | 10 | 281 | 8.0 | 20.9 | 0.00 | 0.00 | 0.00 | 39 | 999.7 |
| 20260505113059 | 10 | 274 | 11.3 | 19.3 | 0.00 | 0.00 | 0.00 | 39 | 1000.2 |
| 20260505111557 | 10 | 264 | 8.0 | 17.7 | 0.00 | 0.00 | 0.00 | 39 | 1000.4 |
| 20260505110105 | 11 | 264 | 11.3 | 19.3 | 0.00 | 0.00 | 0.00 | 37 | 1000.1 |
| 20260505101548 | 11 | 260 | 8.0 | 14.5 | 0.00 | 0.00 | 0.00 | 39 | 1000.3 |
| 20260505100047 | 11 | 239 | 6.4 | 16.1 | 0.00 | 0.00 | 0.00 | 39 | 1000.2 |
| 20260505094543 | 11 | 260 | 6.4 | 12.9 | 0.00 | 0.00 | 0.00 | 39 | 1000.2 |
| 20260505093040 | 11 | 243 | 8.0 | 17.7 | 0.00 | 0.00 | 0.00 | 37 | 1000.4 |
| 20260505091539 | 11 | 250 | 6.4 | 16.1 | 0.00 | 0.00 | 0.00 | 37 | 1000.3 |
| 20260505090037 | 12 | 271 | 6.4 | 14.5 | 0.00 | 0.00 | 0.00 | 35 | 1000.4 |
| 20260505084542 | 12 | 296 | 8.0 | 22.5 | 0.00 | 0.00 | 0.00 | 34 | 1000.5 |
| 20260505083032 | 12 | 262 | 9.7 | 20.9 | 0.00 | 0.00 | 0.00 | 33 | 1000.3 |
| 20260505081530 | 13 | 303 | 14.5 | 25.7 | 0.00 | 0.00 | 0.00 | 32 | 1000.9 |
| 20260505080026 | 13 | 264 | 11.3 | 24.1 | 0.00 | 0.00 | 0.00 | 31 | 1000.9 |
| 20260505074524 | 13 | 265 | 8.0 | 16.1 | 0.00 | 0.00 | 0.00 | 30 | 1001.1 |
| 20260505073033 | 13 | 281 | 8.0 | 20.9 | 0.00 | 0.00 | 0.00 | 30 | 1000.9 |
| 20260505071519 | 13 | 231 | 8.0 | 19.3 | 0.00 | 0.00 | 0.00 | 29 | 1000.6 |
| 20260505070029 | 13 | 276 | 9.7 | 25.7 | 0.00 | 0.00 | 0.00 | 28 | 1000.5 |
| 20260505064515 | 14 | 300 | 14.5 | 24.1 | 0.00 | 0.00 | 0.00 | 28 | 1000.7 |
| 20260505063014 | 13 | 260 | 9.7 | 24.1 | 0.00 | 0.00 | 0.00 | 28 | 1000.8 |
| 20260505061514 | 13 | 274 | 8.0 | 16.1 | 0.00 | 0.00 | 0.00 | 29 | 1000.9 |
| 20260505060007 | 14 | 276 | 8.0 | 17.7 | 0.00 | 0.00 | 0.00 | 28 | 1001.1 |
| 20260505054506 | 13 | 293 | 6.4 | 12.9 | 0.00 | 0.00 | 0.00 | 30 | 1000.9 |
| 20260505053005 | 13 | 258 | 4.8 | 11.3 | 0.00 | 0.00 | 0.00 | 30 | 1000.8 |
| 20260505051508 | 14 | 281 | 6.4 | 14.5 | 0.00 | 0.00 | 0.00 | 29 | 1000.7 |
| 20260505041504 | 13 | 213 | 0.0 | 4.8 | 0.00 | 0.00 | 0.00 | 29 | 1001.0 |
| 20260505040006 | 13 | 300 | 1.6 | 6.4 | 0.00 | 0.00 | 0.00 | 29 | 1001.0 |
| 20260505034503 | 13 | 284 | 1.6 | 6.4 | 0.00 | 0.00 | 0.00 | 29 | 1000.9 |
| 20260505033003 | 15 | 269 | 3.2 | 11.3 | 0.00 | 0.00 | 0.00 | 27 | 1000.9 |
| 20260505031503 | 15 | 291 | 6.4 | 14.5 | 0.00 | 0.00 | 0.00 | 26 | 1000.6 |
| 20260505030002 | 16 | 305 | 4.8 | 19.3 | 0.00 | 0.00 | 0.00 | 24 | 1000.3 |